Regional Weather Roundup
Issued by NWS Sterling, VA

Home | Current Version | Previous Version | Graphics & Text | Print | Product List | Glossary On
Versions: 1 2 3 4 5 6 7 8 9 10 11 12 13 14 15 16 17 18 19 20 21 22 23 24 25 26 27 28 29 30 31 32 33 34 35 36 37 38 39 40 41 42 43 44 45 46 47 48 49 50
000
ASUS41 KLWX 201510
RWRLWX

REGIONAL WEATHER ROUNDUP
NATIONAL WEATHER SERVICE BALTIMORE MD/WASHINGTON DC
1100 AM EDT MON APR 20 2015

Note: "FAIR" indicates few or no clouds below 12,000 feet
with no significant weather and/or obstructions to visibility.
 TC=TEMPERATURE CELSIUS

 * =Non NWS site. Station does not report precipitation (e.g. rain,
    snow, etc.), thunder, or fog.

DCZ001-MDZ009-015-VAZ040>042-051-053>054-201600-
WASHINGTON METRO

CITY           SKY/WX    TMP DP  RH WIND       PRES   REMARKS
WASHINGTON NAT PTSUNNY   72  62  71 SW10      29.67F
DULLES         MOSUNNY   67  60  78 S8        29.67F
FT BELVOIR     PTSUNNY   72  63  73 VRB7      29.67F
QUANTICO       PTSUNNY   73  63  70 NW6       29.68R
COLLEGE PARK*  PTSUNNY   70  63  78 S8        29.66F
LEESBURG*      PTSUNNY   66  61  82 SW6       29.68S
MANASSAS*      PTSUNNY   66  64  94 SW6       29.67F
GAITHERSBURG*  MOSUNNY   64  59  82 S6        29.70F

$$

MDZ006>007-011-014-201600-
BALTIMORE METRO

CITY           SKY/WX    TMP DP  RH WIND       PRES   REMARKS
BWI AIRPORT    PTSUNNY   69  62  78 SW9       29.65F
MD SCIENCE CTR   N/A     71  61  70 MISG      29.70R
MARTIN STATE   PTSUNNY   70  66  88 SE6       29.68S
ANNAPOLIS      PTSUNNY   63  60  90 SE7       29.66F
FORT MEADE*    CLOUDY    68  61  77 SW8       29.69S

$$

MDZ012-015-019>023-201600-
MARYLAND EASTERN SHORE

CITY           SKY/WX    TMP DP  RH WIND       PRES   REMARKS
OCEAN CITY     PTSUNNY   61  58  90 S10       29.72S
SALISBURY      PTSUNNY   70  64  81 S13       29.70S
BAY BRIDGE AP*   N/A    N/A N/A N/A S7        29.67F
CAMBRIDGE*     CLOUDY    72  66  83 SW6       29.68S
EASTON*        CLOUDY    72  68  88 SW12G23   29.72S

$$

MDZ017>025-201600-
SOUTHERN MARYLAND

CITY           SKY/WX    TMP DP  RH WIND       PRES   REMARKS
PATUXENT RIVER PTSUNNY   71  65  81 W9G17     29.67S
ST INIGOES     CLOUDY    70  63  78 SW10      29.68S HAZE
LEONARDTOWN*   CLOUDY    70  61  73 SW9       29.69F

$$

MDZ003>005-201600-
NORTH CENTRAL MARYLAND

CITY           SKY/WX    TMP DP  RH WIND       PRES   REMARKS
FREDERICK*     MOSUNNY   64  54  68 W8        29.70F
HAGERSTOWN APT CLOUDY    56  52  86 SE3       29.67F
WESTMINSTER*   PTSUNNY   63  59  88 SW7       29.67F

$$

MDZ501>502-201600-
WESTERN MARYLAND

CITY           SKY/WX    TMP DP  RH WIND       PRES   REMARKS
OAKLAND*       SUNNY     59 N/A N/A S9        29.63F
CUMBERLAND*    CLOUDY    55  50  82 CALM      29.69F

$$

VAZ025>031-201600-
SHENANDOAH VALLEY

CITY           SKY/WX    TMP DP  RH WIND       PRES   REMARKS
WINCHESTER*    MOSUNNY   63  52  67 S7        29.67F
FRONT ROYAL*   NOT AVBL
LURAY*         FAIR      68  59  73 SW10      29.66F
NEW MARKET*    NOT AVBL
STAUNTON*      MOSUNNY   67  59  76 S9        29.69F
WAYNESBORO*    NOT AVBL

$$

WVZ021-048>050-054>055-201600-
EASTERN WEST VIRGINIA PANHANDLE

CITY           SKY/WX    TMP DP  RH WIND       PRES   REMARKS
MARTINSBURG    CLOUDY    59  53  80 CALM      29.67F
PETERSBURG*    NOT AVBL

$$

VAZ036>039-050-201600-
CENTRAL FOOTHILLS

CITY           SKY/WX    TMP DP  RH WIND       PRES   REMARKS
CHARLOTTESVILL MOSUNNY   70  60  70 S10       29.67F
CULPEPER*      MOSUNNY   72  64  78 S7        29.68S
ORANGE*        MOSUNNY   72  63  73 S9        29.69S
GORDONSVILLE*  FAIR      70  61  73 SW9G18    29.67S
WARRENTON*     FAIR      70  65  83 SW8       29.68R

$$

VAZ055>057-201600-
NORTH AND CENTRAL PIEDMONT

CITY           SKY/WX    TMP DP  RH WIND       PRES   REMARKS
FREDERICKSBRG* MOSUNNY   74  62  66 SW8       29.67S
STAFFORD*      PTSUNNY   71  71  99 SW6       29.71S

$$

NCZ024-NYZ072-PAZ021-071-VAZ022-071-201600-
OTHER REGIONAL OBSERVATIONS

CITY           SKY/WX    TMP DP  RH WIND       PRES   REMARKS
NEW YORK CITY  HVY RAIN  50  49  96 NE9G18    29.78F VSB 3/4
PHILADELPHIA   DRIZZLE   60  59  96 NE5       29.69S FOG
PITTSBURGH     PTSUNNY   66  57  72 S15G22    29.51F
ROANOKE        PTSUNNY   65  59  81 SE6       29.69F
RICHMOND       CLOUDY    70  63  78 SW9       29.71R
RALEIGH        MOSUNNY   72  63  73 SW10G23   29.74S

$$

ANZ530>537-201600-
MARINE OBSERVATIONS

STATION/POSITION TIME  TEMP    WIND        PRES
                       AIR SEA DIR/SP/G
                 (UTC) (F)     (DEG/KT/KT) (MB)
THOMAS PT LIGHT  1500   63 54  170/ 11/ 11 1005.2F
BALT KEY BRIDGE  1400   63     140/  4/  5 1004.5R
COVE POINT       1400   66     250/  9/ 14 1004.8S
LEWISETTA        1400   69 63              1004.8R
SOLOMONS ISLAND  1400      57                N/A
PINEY POINT      1406          280/  7/  8   N/A

$$



USA.gov is the U.S. government's official web portal to all federal, state and local government web resources and services.